www.pogodaiklimat.ru

Погода и климат >> Архив погоды >> Пакистан >> Bahawalpur


ПОГОДА в Bahawalpur

  • Прогноз погоды в Bahawalpur
  • Монитор погоды в Bahawalpur
  • Климат города

АРХИВ ПОГОДЫ в Bahawalpur

Время (UTC), дата Ветер
(напр.,м/с)
 
Видим.   Явления Облачность Т
(С)
Тd
(С)
f
(%)
Тe
(С)
Тes
(С)
Комфортность P
(гПа)
Po
(гПа)
Тmin
(С)
Tmax
(С)
R
(мм)
R24
(мм)
S
(см)
03 14.06 ЮЗ 5 1000 м пыльный позёмок ясно +31.0 +23.1 63 +41 +45 опасность
перегрева
991.4 979.3 +29.3
06 14.06 ЮЗ 9 1000 м пыльный позёмок ясно +34.5 +23.9 54 +46 +48 опасность
перегрева
991.6 992.0
09 14.06 ЮЗ 7 1000 м пыльный позёмок ясно +39.0 +23.5 41 +49 +54 опасность
перегрева
990.2 990.0
12 14.06 ЮЗ 4 1000 м пыль ясно +40.0 +23.9 40 +51 +53 опасность
перегрева
988.5 976.7 +41.1
15 14.06 штиль 0 1000 м пыль ясно +37.5 +25.8 51 +52 +52 опасность
перегрева
988.4 988.0
18 14.06 ЮЗ 9 1000 м пыльный позёмок ясно +36.0 +24.0 50 +47 +47 опасность
перегрева
989.7 990.0
21 14.06 ЮЗ 4 1000 м пыль ясно +34.0 +22.5 51 +43 +43 опасность
перегрева
988.3 988.0
00 15.06 ЮЗ 9 1000 м пыльный позёмок ясно +30.0 +19.4 53 +36 +36 очень
душно
990.5 978.3
03 15.06 ЮЗ 8 1000 м пыль ясно +29.5 +21.4 62 +37 +39 очень
душно
992.5 980.3 +29.0
06 15.06 ЮЗ 8 1000 м пыльный позёмок ясно +33.0 +23.8 59 +45 +48 опасность
перегрева
992.9 993.0
09 15.06 ЮЗ 4 1000 м пыльный позёмок ясно +38.0 +24.8 47 +51 +64 опасность
перегрева
990.8 1000.0
12 15.06 ЮЗ 4 2000 м пыль ясно +40.0 +23.9 40 +51 +53 опасность
перегрева
989.0 1002.5 +40.2
15 15.06 штиль 0 2000 м пыль ясно +37.0 +24.4 49 +49 +49 опасность
перегрева
989.2 1000.0
18 15.06 ЮЗ 7 1000 м пыльный позёмок ясно +36.0 +22.5 46 +45 +45 опасность
перегрева
992.1 992.0
21 15.06 ЮЗ 8 1000 м пыльный позёмок ясно +33.0 +21.3 50 +41 +41 опасность
перегрева
991.5 992.0
00 16.06 ЮЗ 4 1000 м пыльный позёмок ясно +30.5 +20.9 57 +38 +38 очень
душно
991.8 979.7
03 16.06 ЮЗ 4 1000 м пыль ясно +30.5 +23.3 65 +41 +45 опасность
перегрева
995.1 983.0 +29.3
06 16.06 ЮЗ 7 2000 м пыльный позёмок 4/0
[Ac trans]
+33.5 +24.4 59 +46 +50 опасность
перегрева
996.0 996.0
09 16.06 ЮЗ 4 2000 м пыль 3/0
[Ac trans]
+36.5 +26.2 56 +53 +63 опасность
перегрева
994.8 995.0
12 16.06 штиль 0 2000 м пыль ясно +38.0 +25.6 49 +52 +58 опасность
перегрева
992.8 993.7 +38.6
15 16.06 штиль 0 2000 м пыль ясно +36.0 +24.9 53 +49 +49 опасность
перегрева
992.6 993.0
18 16.06 штиль 0 2000 м дым ясно +34.0 +24.9 59 +47 +47 опасность
перегрева
993.6 994.0
21 16.06 штиль 0 2000 м дым ясно +32.5 +24.0 61 +44 +44 опасность
перегрева
992.9 986.8
00 17.06 штиль 0 2000 м дым ясно +30.0 +23.5 68 +41 +41 опасность
перегрева
992.7 980.6
03 17.06 ЮЗ 5 2000 м дым 6/3 1000 м
[Sc Ac trans]
+30.5 +23.3 65 +41 +43 опасность
перегрева
996.4 984.3 +29.4
06 17.06 ЮЗ 2 2000 м дым 8/4 1200 м
[Sc Ac trans]
+34.0 +24.9 59 +47 +55 опасность
перегрева
997.7 998.0
09 17.06 Ю 1 2000 м мгла 6/4 300 м
[Sc Ac trans]
+37.0 +23.6 46 +47 +59 опасность
перегрева
995.7 1000.0
12 17.06 СВ 1 2000 м мгла 8/4 300 м
[Sc Ac trans]
+39.0 +23.5 41 +49 +51 опасность
перегрева
993.3 1001.0 +39.3
15 17.06 СВ 2 1000 м пыль 4/0
[]
+36.0 +24.0 50 +47 +47 опасность
перегрева
993.5 1000.0
18 17.06 СВ 4 1000 м зарница 8/1 600 м
[Cb cap Ac trans]
+33.5 +22.7 53 +43 +43 опасность
перегрева
995.9 996.0
21 17.06 СВ 2 1000 м дым 8/4 300 м
[Sc Ac As]
+28.0 +22.6 73 +37 +37 очень
душно
994.3 1000.0 7
00 18.06 СВ 1 1000 м гроза, ливневой дождь 9/5 300 м
[Cb cap Ac As]
+25.5 +22.0 81 +33 +33 очень
душно
999.7 987.3 2
03 18.06 штиль 0 1000 м дым {дождь} 9/4 1200 м
[Sc Ac As]
+26.5 +22.9 81 +35 +38 очень
душно
999.3 986.9 +24.5 1
06 18.06 ЮЗ 2 4000 м дым 6/3 1200 м
[Sc Ac trans]
+30.5 +22.5 62 +40 +50 очень
душно
1000.2 1000.0 1
09 18.06 ЮЗ 2 4000 м дым ясно +34.5 +23.1 52 +45 +63 опасность
перегрева
998.3 998.0
12 18.06 ЮЗ 2 4000 м дым 1/0
[Ac trans]
+35.0 +24.5 55 +48 +52 опасность
перегрева
997.6 997.0 +35.6 1
15 18.06 СВ 2 2000 м дым 5/1 1200 м
[Sc Ac trans]
+33.0 +24.6 61 +46 +46 опасность
перегрева
997.1 997.0
18 18.06 СВ 3 2000 м дым 3/0
[Ac trans]
+31.0 +23.9 66 +43 +43 опасность
перегрева
997.7 998.0 1
21 18.06 СВ 2 2000 м дым 3/0
[Ac trans]
+29.0 +23.2 71 +39 +39 очень
душно
997.3 1000.0
00 19.06 штиль 0 2000 м дым ясно +27.0 +22.6 77 +36 +36 очень
душно
997.9 985.6
03 19.06 ЮВ 2 2000 м дым ясно +31.0 +23.9 66 +43 +49 опасность
перегрева
998.6 986.5 +26.1
06 19.06 Ю 1 4000 м дым ясно +36.5 +24.6 51 +49 +75 опасность
перегрева
998.7 1000.0
09 19.06 ЮЗ 1 4000 м мгла 1/1 300 м
[Sc]
+38.0 +24.8 47 +51 +70 опасность
перегрева
997.1 1000.0
12 19.06 ЮЗ 1 4000 м мгла ясно +39.0 +25.2 46 +52 +58 опасность
перегрева
995.3 997.3 +39.9
15 19.06 штиль 0 2000 м дым ясно +35.0 +25.3 57 +49 +49 опасность
перегрева
995.5 996.0
18 19.06 ЮЗ 2 2000 м дым 1/0
[Ac trans]
+32.5 +24.0 61 +44 +44 опасность
перегрева
996.7 1000.0
21 19.06 ЮЗ 2 2000 м дым 5/0
[Ac trans]
+30.5 +23.3 65 +41 +41 опасность
перегрева
996.3 1000.0
00 20.06 штиль 0 2000 м дым 1/0
[Ac trans]
+30.0 +22.8 65 +40 +40 очень
душно
997.4 985.2
03 20.06 ЮВ 2 2000 м дым ясно +32.5 +24.8 64 +46 +53 опасность
перегрева
998.8 986.7 +28.9
06 20.06 З 2 2000 м мгла ясно +36.0 +23.2 48 +46 +66 опасность
перегрева
999.0 999.0
09 20.06 ЮЗ 2 2000 м мгла ясно +39.5 +23.3 40 +49 +68 опасность
перегрева
997.6 998.0
12 20.06 З 2 2000 м мгла ясно +40.5 +23.7 39 +51 +55 опасность
перегрева
995.3 983.5 +41.3
15 20.06 СВ 7 500 м гроза, ливневой дождь 10/5 900 м
[Cb cap Ac As]
+26.0 +24.6 92 +37 +37 очень
душно
998.7 999.0 1
18 20.06 ЮВ 3 2000 м дымка {гроза, дождь} 6/1 1200 м
[Sc Ac trans]
+26.0 +23.8 88 +36 +36 очень
душно
999.2 999.0 8

 

Местоположение метеостанции Bahawalpur (Пакистан): широта 29.40 долгота 71.78 высота над уровнем моря 113 м.

В архиве по умолчанию представлена погода в Bahawalpur за последнюю неделю. Архивные данные за месяц целиком и за предыдущие месяцы, начиная с января 2011 года, Вы можете получить, выбрав интересующий диапазон дат из раскрывающегося списка и нажав кнопку "Ввод!".


*Определитесь, кто Вы:
робот инопланетянин человек

Внимание! Время в таблицах - всемирное. Для получения местного времени необходимо прибавить поправку, которая в Bahawalpur равна 5 ч.

Смотрите также архив погоды в соседних городах и на ближайших метеорологических станциях:

Погода в Multan (Пакистан) (95 км)
Погода в Khanpur (Пакистан) (136 км)
Погода в Bahawalnagar (Пакистан) (155 км)
Погода в Raifiqui Airbase (Пакистан) (159 км)
Погода в Barkhan (Пакистан) (206 км)
Погода в Sri Ganganagar (Rajasthan, Индия) (212 км)
Погода в Bikaner (Rajasthan, Индия) (215 км)
Погода в Faisal Abad (Пакистан) (259 км)
Погода в Dera Ismail Khan (Пакистан) (281 км)
Погода в Jaisalmer (Rajasthan, Индия) (291 км)

Пояснения к столбцам:

Ветер - указаны скорость ветра в м/с - средняя за 10 мин, порывы в срок и между сроками (в фигурных скобках) и направление, откуда дует ветер: С - северный, СВ - северо-восточный, В - восточный, ЮВ - юго-восточный, Ю - южный, ЮЗ - юго-западный, З - западный, СЗ - северо-западный.
Видимость - горизонтальная дальность видимости в метрах или километрах. При видимости от 1 до 10 км при отсутствии осадков обычно наблюдается дымка, при ухудшении видимости до 1 км и менее - туман. В сухую погоду видимость может ухудшаться дымом, пылью или мглою.
Явления - указаны атмосферные явления, наблюдавшиеся в срок или в последний час перед сроком; фигурными скобками обозначены явления, наблюдавшиеся между сроками (за 1-3 часа до срока); квадратными скобками обозначены град или гололедные отложения с указанием их диаметра в мм.
Облачность - указаны через наклонную черту общая и нижняя облачность в баллах и высота нижней границы облаков в метрах; квадратными скобками обозначены формы облаков: Ci - перистые, Cs - перисто-слоистые, Cc - перисто-кучевые, Ac - высококучевые, As - высокослоистые, Sc - слоисто-кучевые, Ns - слоисто-дождевые, Cu - кучевые, Cb - кучево-дождевые. Подробнее классификацию облаков см. в Атласе облаков (PDF).
T - Температура воздуха - температура, измеренная на высоте 2 м над землей.
Td - Температура точки росы - температура, при понижении до которой содержащийся в воздухе водяной пар достигнет насыщения.
f - Относительная влажность воздуха - влажноcть воздуха, измеренная на высоте 2 м над землей.
Te - Эффективная температура - температура, которую ощущает одетый по сезону человек в тени. Характеристика душности погоды. При расчете учитывается влияние влажности воздуха и скорости ветра на теплоощущения человека.
Tes - Эффективная температура на солнце - температура, которую ощущает человек, с поправкой на солнечный нагрев. Характеристика знойности погоды. Зависит от высоты солнца над горизонтом, облачности и скорости ветра. Ночью, в пасмурную погоду, а также при ветре 12 м/с и более поправка равна нулю.
P - Атмосферное давление - приведенное к уровню моря атмосферное давление.
Po - Атмосферное давление - измеренное на уровне метеостанции атмосферное давление.
Tmin - Минимальная температура - минимум температуры воздуха на высоте 2 м над землей.
Tmax - Максимальная температура - максимум температуры воздуха на высоте 2 м над землей.
R - Количество осадков - Количество выпавших осадков за период времени, мм. При наведении курсора мыши на число - период времени, за который выпало указанное количество осадков.
R24 - Количество осадков - Количество выпавших осадков за 24 часа, мм.
S - Снежный покров - Высота снежного покрова, см. При наведении курсора мыши на число - состояние снежного покрова и степень покрытия местности в баллах.